Location: Goll?ig?dem
(16.6773°N, 80.7332°E)
Time: 06:33:50
(UTC+00:00)

FALCON 9 DEB - Pass Details

Date: 21 April 2021
Orbit: 364 x 382 km, 53.0° (Epoch: 06 May)

Event Time Altitude Azimuth Distance (km) Brightness Sun altitude
Exits shadow 23:50:10 - 302° (WNW) 2,082 6.2 -7.1°
Reaches altitude 10° 23:52:10 10° 285° (WNW) 1,380 5.1 -6.7°
Maximum altitude 23:54:28 19° 237° (WSW) 959 4.3 -6.1°
Drops below altitude 10° 23:56:48 10° 188° (S) 1,384 5.5 -5.6°
Sets 23:59:12 0° 169° (S) 2,238 6.7 -5.0°
